Terminal Aerodrome Forecast
Issued by NWS Knoxville/Tri Cities, TN

Home | Current Version | Previous Version | Text Only | Print | Product List | Glossary On
Versions: 1 2 3 4 5 6 7 8 9 10 11 12 13 14 15 16 17 18 19 20 21 22 23 24 25 26 27 28 29 30
000
FTUS44 KMRX 252320
TAFCHA
TAF
KCHA 252320Z 2600/2624 22008KT P6SM BKN050
     FM260500 22006KT P6SM VCTS BKN030CB
     FM260700 22006KT P6SM BKN050
     FM261300 32012KT P6SM BKN100=

USA.gov is the U.S. government's official web portal to all federal, state and local government web resources and services.